STARLINK-3796, 52372

Orbit data source: Space-Track

STARLINK-3796, 52372 is a payload satellite owned by SpaceX/Seattle (US) in LEO that was launched on Fri, 29 Apr 2022 UTC via an FALCON 9 launch vehicle from the Air Force Eastern Test Range (AFETR). Payload-class satellites include a variety of spacecraft equipped with specific instruments for various scientific and technological missions. These include communications satellites like Starlink; space stations such as the ISS; scientific satellites like the Hubble; Earth observation satellites from companies like Planet Labs, Umbra, and HawkEye 360; GPS; miniature CubeSats for education and research; and military/defense satellites.

Loading next visibility...
Identifier
52372, 2022-045AT
Orbit
LEO
Country
Flag of USUS
Related business
Manufacturer
SpaceX/Seattle
Mission
Operational Commercial Communications
Bus & Motor
STARLINK, Unknown motor
Mass
297 kg wet, ~275 kg dry
Launch date (UTC)
2022-04-29 (4 years ago)
Launch vehicle
FALCON 9
Launch site
Air Force Eastern Test Range (AFETR)
Object type
Payload
Rocket body
Debris
Shape & HBR
Box + 1 Pan, 10.1 m
Radar Cross Section
11.087 m², Large (>1 m²)

Expand to show TLE details & history
Last TLE update: 17 hours ago

TLE from 17 hours ago
0 STARLINK-3796
1 52372U 22045AT  25348.90623689  .00000659  00000-0  59471-4 0  9997
2 52372  53.2157 209.7280 0001374  86.3857 273.7292 15.08832683203117
Epoch: 2025-12-14T21:44Z
TLE epoch observation values (Epoch: 2025-12-14T21:44:58.867Z)
Latitude
-0.00003°
Longitude
159.67026°
Altitude
540.601 km
Speed
7.593 km/s
True Right ascension
13h 58m 54s
True Declination
0° 00' 00"
Sunlit
Object was in daylight at epoch
Visualization orbit readout
Latitude
Unknown
Longitude
Unknown
Altitude
Unknown
Speed
Unknown
Apparent Right ascension
Unknown
Apparent Declination
Unknown
Sunlit
N/A
Visualization observer readout
Local Sidereal Time
13:19:52
Azimuth
Unknown
Elevation
Unknown
Doppler factor
Unknown
Orbital elements
Apogee altitude
540.962 km
Perigee altitude
539.06 km
Semi-major axis
6,918.148 km
Eccentricity
0.00014
Inclination
53.2157°
RAAN
209.728°
Arg. of periapsis
86.3857°
True anomaly
273.71349°
Mean anomaly
273.7292°
Eccentric anomaly
273.72134°
Mean motion
3.77188 °/min
Orbital period
95.44 mins
BSTAR
0.000059471
Loading maneuver chart data...
Computing Atmospheric mass density...
Loading historical data...
Loading historical data...
Loading historical data...
Loading historical data...
Loading historical data...
Loading historical data...
Loading historical data...

Documentation

Showing up to 5 results
|